Regional Weather Roundup
Issued by NWS

Home | Current Version | Previous Version | Graphics & Text | Print | Product List | Glossary On
Versions: 1 2 3 4 5 6 7 8 9 10 11 12 13 14 15 16 17 18 19 20 21 22 23 24 25 26 27 28 29 30 31 32 33 34 35 36 37 38 39 40 41 42 43 44 45 46 47 48 49 50
000
ASUS45 KBOI 310110
RWRID
WEATHER ROUNDUP FOR IDAHO
NATIONAL WEATHER SERVICE BOISE ID
600 PM MST FRI JAN 30 2015

NOTE: "FAIR" INDICATES FEW OR NO CLOUDS BELOW 12000 FEET
WITH NO SIGNIFICANT WEATHER AND/OR OBSTRUCTIONS TO VISIBILITY

IDZ012-014-310200-
SOUTHWEST IDAHO


CITY           SKY/WX    TMP DP  RH WIND       PRES   REMARKS
BOISE          CLEAR     40  32  73 NW6       30.16F
CALDWELL       CLEAR     43  28  56 W5        30.18F
MOUNTAIN HOME  CLEAR     38  33  82 W7        30.15F WCI  33
$$

IDZ016-017-310200-
SOUTHCENTRAL IDAHO


CITY           SKY/WX    TMP DP  RH WIND       PRES   REMARKS
BURLEY         CLOUDY    35  31  85 W8        30.12S WCI  29
JEROME         CLOUDY    35  31  85 W5        30.13F WCI  31
TWIN FALLS     CLOUDY    39  33  79 NW7       30.13F WCI  34
$$

IDZ019>023-310200-
SOUTHEAST IDAHO


CITY           SKY/WX    TMP DP  RH WIND       PRES   REMARKS
IDAHO FALLS    CLOUDY    34  27  75 N3        30.09F
POCATELLO      PTCLDY    35  31  85 SW6       30.10F WCI  30
REXBURG        CLOUDY    32  25  75 N3        30.08F
$$

IDZ006-010-011-018-031-032-310200-
CENTRAL IDAHO MOUNTAINS


CITY           SKY/WX    TMP DP  RH WIND       PRES   REMARKS
MCCALL         CLEAR     31  22  69 CALM      30.11S
HAILEY         MOCLDY    34  27  75 CALM      30.12F
STANLEY          N/A     15   9  76 SE3       30.14F
SALMON         CLOUDY    28  21  74 N3        30.26S
CHALLIS        CLOUDY    27  19  72 NE3       30.22S
$$

IDZ002-004-006-007-026-310200-
NORTHERN IDAHO


CITY           SKY/WX    TMP DP  RH WIND       PRES   REMARKS
LEWISTON       CLOUDY    37  35  92 CALM      30.30S
LOWELL           N/A     34  30  85 CALM      30.28S
COEUR D`ALENE  CLOUDY    30  27  86 W3        30.28R
MULLAN PASS    CLEAR     29  21  72 NW7       30.14F WCI  22
$$


USA.gov is the U.S. government's official web portal to all federal, state and local government web resources and services.